sat.trackr.live / text

‹ back to catalog

STARLINK-36316

NORAD 67705 · 2026-025N

PAYLOAD ACTIVE UNKNOWN

§ Identity

Operator
Country
US
Launch date
2026-02-07
Launch site
AFWTR
Launch vehicle
Mass (kg)
RCS (m²)

Purposes: comms

External: N2YO · Heavens-Above · Gunter

§ Orbital elements

Epoch: 2026-05-24T19:15:41.288544Z

Period
93.91 min
Inclination
97.2849°
Eccentricity
0.0000354
Mean motion
15.33451638 rev/d
Perigee alt
465.3 km
Apogee alt
465.8 km
Semi-major
6,843.7 km
B*
5.6075e-4
RAAN
256.3652°
Arg perigee
38.6446°
Mean anomaly
321.4822°
Rev number
1,767

§ Raw data

STARLINK-363161 67705U 26025N   26144.80256121  .00018075  00000+0  56075-3 0  99982 67705  97.2849 256.3652 0000354  38.6446 321.4822 15.33451638 17670

JSON: /api/v1/satellites/67705 · /tle

For live sub-satellite position, see the globe view (requires WebGL).

§ Visibility from observer

Set your observer location to see the next 7 days of passes ≥ 10°. The values pass through the URL so the page stays shareable.

No JS? Fill the form by hand. The geolocation button needs JavaScript.